Time,TemperatureF,DewpointF,PressureIn,WindDirection,WindDirectionDegrees,WindSpeedMPH,WindSpeedGustMPH,Humidity,HourlyPrecipIn,Conditions,Clouds,dailyrainin,SoftwareType,DateUTC
2013-06-11 00:04:00,65.5,59.6,29.88,WNW,293,0.0,0.0,81,0.00,,,0.00,WUHU21623XXSP,2013-06-11 04:04:00,
2013-06-11 01:04:00,64.2,58.6,29.88,WNW,293,0.0,0.0,82,0.00,,,0.00,WUHU21623XXSP,2013-06-11 05:04:00,
2013-06-11 02:04:00,63.3,58.1,29.89,WNW,293,0.0,0.0,83,0.00,,,0.00,WUHU21623XXSP,2013-06-11 06:04:00,
2013-06-11 03:04:00,63.1,58.2,29.90,WNW,293,0.0,0.0,84,0.00,,,0.00,WUHU21623XXSP,2013-06-11 07:04:00,
2013-06-11 04:04:00,63.0,58.7,29.91,WNW,293,0.0,0.0,86,0.00,,,0.00,WUHU21623XXSP,2013-06-11 08:04:00,
2013-06-11 05:04:00,62.4,58.2,29.93,WNW,293,0.0,0.0,86,0.00,,,0.00,WUHU21623XXSP,2013-06-11 09:04:00,
2013-06-11 06:04:00,61.5,57.3,29.94,WNW,293,0.0,0.0,86,0.00,,,0.00,WUHU21623XXSP,2013-06-11 10:04:00,
2013-06-11 07:04:00,61.3,57.4,29.95,WNW,293,0.0,0.0,87,0.00,,,0.00,WUHU21623XXSP,2013-06-11 11:04:00,
2013-06-11 07:46:00,61.5,57.6,29.96,WSW,247,0.0,0.0,87,0.00,,,0.00,WUHU21623XXSP,2013-06-11 11:46:00,
2013-06-11 07:47:00,61.5,57.6,29.96,WSW,247,0.0,0.0,87,0.00,,,0.00,WUHU21623XXSP,2013-06-11 11:47:00,
2013-06-11 07:52:00,61.5,57.6,29.96,WSW,247,0.0,0.0,87,0.18,,,0.18,WUHU21623XXSP,2013-06-11 11:52:00,
2013-06-11 07:57:00,61.5,57.6,29.96,WSW,247,0.0,0.0,87,0.18,,,0.18,WUHU21623XXSP,2013-06-11 11:57:00,
2013-06-11 08:02:00,61.5,57.6,29.96,WSW,247,0.0,0.0,87,0.18,,,0.18,WUHU21623XXSP,2013-06-11 12:02:00,
2013-06-11 08:07:00,61.5,57.6,29.96,WSW,247,0.0,0.0,87,0.00,,,0.18,WUHU21623XXSP,2013-06-11 12:07:00,
2013-06-11 08:12:00,61.5,57.6,29.96,WSW,247,0.0,0.0,87,0.00,,,0.18,WUHU21623XXSP,2013-06-11 12:12:00,
2013-06-11 08:17:00,61.5,58.0,29.96,WSW,247,0.0,0.0,88,0.00,,,0.18,WUHU21623XXSP,2013-06-11 12:17:00,
2013-06-11 08:22:00,61.7,58.2,29.96,WSW,247,0.0,0.0,88,0.00,,,0.18,WUHU21623XXSP,2013-06-11 12:22:00,
2013-06-11 08:27:00,61.7,58.2,29.96,WSW,247,0.0,0.0,88,0.00,,,0.18,WUHU21623XXSP,2013-06-11 12:27:00,
2013-06-11 08:32:00,61.9,58.3,29.97,WSW,247,0.0,0.0,88,0.00,,,0.18,WUHU21623XXSP,2013-06-11 12:32:00,
2013-06-11 08:37:00,61.9,58.3,29.97,WSW,247,0.0,0.0,88,0.00,,,0.18,WUHU21623XXSP,2013-06-11 12:37:00,
2013-06-11 08:42:00,61.9,58.3,29.97,WSW,247,0.0,0.0,88,0.00,,,0.18,WUHU21623XXSP,2013-06-11 12:42:00,
2013-06-11 08:47:00,62.2,58.7,29.97,WNW,292,0.0,0.0,88,0.00,,,0.18,WUHU21623XXSP,2013-06-11 12:47:00,
2013-06-11 08:52:00,62.4,58.9,29.97,WSW,247,0.7,0.7,88,0.00,,,0.18,WUHU21623XXSP,2013-06-11 12:52:00,
2013-06-11 08:57:00,62.4,58.9,29.97,SSW,202,0.0,0.7,88,0.00,,,0.18,WUHU21623XXSP,2013-06-11 12:57:00,
2013-06-11 09:02:00,62.8,59.2,29.97,SW,225,1.8,1.8,88,0.00,,,0.18,WUHU21623XXSP,2013-06-11 13:02:00,
2013-06-11 09:07:00,63.1,59.6,29.97,SW,225,0.0,1.8,88,0.00,,,0.18,WUHU21623XXSP,2013-06-11 13:07:00,
2013-06-11 09:12:00,63.3,59.8,29.97,West,270,0.0,0.0,88,0.00,,,0.18,WUHU21623XXSP,2013-06-11 13:12:00,
2013-06-11 09:17:00,63.5,59.9,29.97,WSW,247,0.0,0.0,88,0.00,,,0.18,WUHU21623XXSP,2013-06-11 13:17:00,
2013-06-11 09:22:00,64.0,60.5,29.97,WSW,247,0.0,0.0,88,0.00,,,0.18,WUHU21623XXSP,2013-06-11 13:22:00,
2013-06-11 09:27:00,64.0,60.5,29.97,WSW,247,0.0,0.0,88,0.00,,,0.18,WUHU21623XXSP,2013-06-11 13:27:00,
2013-06-11 09:32:00,64.2,60.7,29.98,SW,225,0.0,0.0,88,0.00,,,0.18,WUHU21623XXSP,2013-06-11 13:32:00,
2013-06-11 09:37:00,64.2,60.7,29.98,SW,225,0.0,0.0,88,0.00,,,0.18,WUHU21623XXSP,2013-06-11 13:37:00,
2013-06-11 09:42:00,64.9,61.3,29.98,SW,225,0.0,0.0,88,0.00,,,0.18,WUHU21623XXSP,2013-06-11 13:42:00,
2013-06-11 09:47:00,65.1,61.5,29.98,SW,225,0.0,0.0,88,0.00,,,0.18,WUHU21623XXSP,2013-06-11 13:47:00,
2013-06-11 09:52:00,65.5,61.8,29.99,South,180,1.3,1.3,88,0.00,,,0.18,WUHU21623XXSP,2013-06-11 13:52:00,
2013-06-11 09:57:00,66.0,62.3,29.98,WNW,292,0.0,1.3,88,0.00,,,0.18,WUHU21623XXSP,2013-06-11 13:57:00,
2013-06-11 10:02:00,66.4,62.7,29.97,WNW,292,0.0,1.3,88,0.00,,,0.18,WUHU21623XXSP,2013-06-11 14:02:00,
2013-06-11 10:07:00,66.4,62.7,29.97,WNW,292,0.0,0.0,88,0.00,,,0.18,WUHU21623XXSP,2013-06-11 14:07:00,
2013-06-11 10:12:00,66.7,63.0,29.98,WNW,292,0.0,0.0,88,0.00,,,0.18,WUHU21623XXSP,2013-06-11 14:12:00,
2013-06-11 10:17:00,67.1,63.4,29.98,NW,315,0.0,0.0,88,0.00,,,0.18,WUHU21623XXSP,2013-06-11 14:17:00,
2013-06-11 10:22:00,67.6,63.9,29.98,WSW,247,0.0,0.0,88,0.00,,,0.18,WUHU21623XXSP,2013-06-11 14:22:00,
2013-06-11 10:27:00,68.2,64.5,29.98,WSW,247,0.0,0.0,88,0.00,,,0.18,WUHU21623XXSP,2013-06-11 14:27:00,
2013-06-11 10:32:00,68.5,64.8,29.98,WSW,247,6.3,6.3,88,0.00,,,0.18,WUHU21623XXSP,2013-06-11 14:32:00,
2013-06-11 10:37:00,68.5,64.1,29.98,NW,315,0.0,6.3,86,0.00,,,0.18,WUHU21623XXSP,2013-06-11 14:37:00,
2013-06-11 10:42:00,69.6,65.2,29.98,SW,225,2.2,6.3,86,0.00,,,0.18,WUHU21623XXSP,2013-06-11 14:42:00,
2013-06-11 10:47:00,69.6,65.2,29.98,SW,225,2.2,2.2,86,0.00,,,0.18,WUHU21623XXSP,2013-06-11 14:47:00,
2013-06-11 10:52:00,70.0,65.6,29.98,SW,225,1.6,2.2,86,0.00,,,0.18,WUHU21623XXSP,2013-06-11 14:52:00,
2013-06-11 10:57:00,70.5,65.8,29.98,SW,225,1.6,1.6,85,0.00,,,0.18,WUHU21623XXSP,2013-06-11 14:57:00,
2013-06-11 11:02:00,70.8,65.7,29.98,SW,225,1.6,1.6,84,0.00,,,0.18,WUHU21623XXSP,2013-06-11 15:02:00,
2013-06-11 11:07:00,70.8,65.7,29.98,SW,225,1.6,1.6,84,0.00,,,0.18,WUHU21623XXSP,2013-06-11 15:07:00,
2013-06-11 11:12:00,70.5,65.4,29.98,WSW,247,0.0,1.6,84,0.00,,,0.18,WUHU21623XXSP,2013-06-11 15:12:00,
2013-06-11 11:17:00,70.3,65.0,29.98,NW,315,0.0,0.0,83,0.00,,,0.18,WUHU21623XXSP,2013-06-11 15:17:00,
2013-06-11 11:22:00,70.5,65.1,29.98,WSW,247,0.0,0.0,83,0.00,,,0.18,WUHU21623XXSP,2013-06-11 15:22:00,
2013-06-11 11:27:00,70.5,65.1,29.98,NW,315,0.0,0.0,83,0.00,,,0.18,WUHU21623XXSP,2013-06-11 15:27:00,
2013-06-11 11:32:00,70.4,64.7,29.98,WSW,247,0.0,0.0,82,0.00,,,0.18,WUHU21623XXSP,2013-06-11 15:32:00,
2013-06-11 11:37:00,70.3,64.6,29.98,WNW,292,0.0,0.0,82,0.00,,,0.18,WUHU21623XXSP,2013-06-11 15:37:00,
2013-06-11 11:42:00,70.2,64.5,29.98,WNW,292,0.0,0.0,82,0.00,,,0.18,WUHU21623XXSP,2013-06-11 15:42:00,
2013-06-11 11:47:00,70.2,64.5,29.98,NW,315,0.0,0.0,82,0.00,,,0.18,WUHU21623XXSP,2013-06-11 15:47:00,
2013-06-11 11:52:00,70.1,64.1,29.98,NW,315,0.0,0.0,81,0.00,,,0.18,WUHU21623XXSP,2013-06-11 15:52:00,
2013-06-11 11:57:00,70.0,64.0,29.98,NW,315,0.0,0.0,81,0.00,,,0.18,WUHU21623XXSP,2013-06-11 15:57:00,
2013-06-11 12:02:00,69.8,63.7,29.98,NW,315,0.0,0.0,81,0.00,,,0.18,WUHU21623XXSP,2013-06-11 16:02:00,
2013-06-11 12:07:00,69.9,63.5,29.98,SE,135,0.0,0.0,80,0.00,,,0.18,WUHU21623XXSP,2013-06-11 16:07:00,
2013-06-11 12:12:00,69.8,63.4,29.98,NW,315,0.0,0.0,80,0.00,,,0.18,WUHU21623XXSP,2013-06-11 16:12:00,
2013-06-11 12:17:00,69.9,63.2,29.99,West,270,0.9,0.9,79,0.00,,,0.18,WUHU21623XXSP,2013-06-11 16:17:00,
2013-06-11 12:22:00,69.9,62.8,29.98,WNW,292,0.0,0.9,78,0.00,,,0.18,WUHU21623XXSP,2013-06-11 16:22:00,
2013-06-11 12:27:00,70.0,62.9,29.97,West,270,0.0,0.9,78,0.00,,,0.18,WUHU21623XXSP,2013-06-11 16:27:00,
2013-06-11 12:32:00,70.3,63.3,29.97,SW,225,2.9,2.9,78,0.00,,,0.18,WUHU21623XXSP,2013-06-11 16:32:00,
2013-06-11 12:37:00,70.1,63.1,29.97,SW,225,2.9,2.9,78,0.00,,,0.18,WUHU21623XXSP,2013-06-11 16:37:00,
2013-06-11 12:42:00,70.4,62.3,29.97,SW,225,2.9,2.9,75,0.00,,,0.18,WUHU21623XXSP,2013-06-11 16:42:00,
2013-06-11 12:47:00,70.5,62.3,29.97,SW,225,0.0,2.9,75,0.00,,,0.18,WUHU21623XXSP,2013-06-11 16:47:00,
2013-06-11 12:52:00,70.3,62.1,29.97,SW,225,0.0,0.0,75,0.00,,,0.18,WUHU21623XXSP,2013-06-11 16:52:00,
2013-06-11 12:57:00,70.1,62.0,29.97,SW,225,0.0,0.0,75,0.00,,,0.18,WUHU21623XXSP,2013-06-11 16:57:00,
2013-06-11 13:02:00,70.0,61.4,29.97,SE,135,1.1,1.1,74,0.00,,,0.18,WUHU21623XXSP,2013-06-11 17:02:00,
2013-06-11 13:07:00,69.8,61.3,29.97,SE,135,1.1,1.1,74,0.00,,,0.18,WUHU21623XXSP,2013-06-11 17:07:00,
2013-06-11 13:12:00,69.7,60.8,29.96,SE,135,1.1,1.1,73,0.00,,,0.18,WUHU21623XXSP,2013-06-11 17:12:00,
2013-06-11 13:17:00,69.6,60.7,29.97,SE,135,1.1,1.1,73,0.00,,,0.18,WUHU21623XXSP,2013-06-11 17:17:00,
2013-06-11 13:22:00,69.5,60.6,29.97,NNW,337,0.0,1.1,73,0.00,,,0.18,WUHU21623XXSP,2013-06-11 17:22:00,
2013-06-11 13:27:00,69.4,60.5,29.96,NNW,337,0.0,1.1,73,0.00,,,0.18,WUHU21623XXSP,2013-06-11 17:27:00,
2013-06-11 13:32:00,70.4,61.1,29.96,WSW,247,0.0,0.0,72,0.00,,,0.18,WUHU21623XXSP,2013-06-11 17:32:00,
2013-06-11 13:37:00,70.3,61.0,29.96,North,0,0.0,0.0,72,0.00,,,0.18,WUHU21623XXSP,2013-06-11 17:37:00,
2013-06-11 13:42:00,70.3,60.2,29.96,North,0,0.0,0.0,70,0.00,,,0.18,WUHU21623XXSP,2013-06-11 17:42:00,
2013-06-11 13:47:00,70.7,60.7,29.96,SW,225,0.0,0.0,70,0.00,,,0.18,WUHU21623XXSP,2013-06-11 17:47:00,
2013-06-11 13:52:00,70.7,60.6,29.96,SW,225,0.0,0.0,70,0.00,,,0.18,WUHU21623XXSP,2013-06-11 17:52:00,
2013-06-11 13:57:00,70.9,60.8,29.96,SSW,202,0.0,0.0,70,0.00,,,0.18,WUHU21623XXSP,2013-06-11 17:57:00,
2013-06-11 14:02:00,70.9,60.8,29.95,SSW,202,0.0,0.0,70,0.00,,,0.18,WUHU21623XXSP,2013-06-11 18:02:00,
2013-06-11 14:07:00,71.1,61.0,29.95,SSW,202,0.0,0.0,70,0.00,,,0.18,WUHU21623XXSP,2013-06-11 18:07:00,
2013-06-11 14:12:00,71.1,60.2,29.95,South,180,0.0,0.0,68,0.00,,,0.18,WUHU21623XXSP,2013-06-11 18:12:00,
2013-06-11 14:17:00,71.2,60.3,29.95,South,180,0.0,0.0,68,0.00,,,0.18,WUHU21623XXSP,2013-06-11 18:17:00,
2013-06-11 14:22:00,71.2,60.3,29.94,South,180,0.0,0.0,68,0.00,,,0.18,WUHU21623XXSP,2013-06-11 18:22:00,
2013-06-11 14:27:00,71.3,60.4,29.95,SSE,157,3.4,3.4,68,0.00,,,0.18,WUHU21623XXSP,2013-06-11 18:27:00,
2013-06-11 14:32:00,71.4,60.5,29.95,SSE,157,3.4,3.4,68,0.00,,,0.18,WUHU21623XXSP,2013-06-11 18:32:00,
2013-06-11 14:37:00,72.0,61.0,29.95,SSE,157,3.4,3.4,68,0.00,,,0.18,WUHU21623XXSP,2013-06-11 18:37:00,
2013-06-11 14:42:00,72.5,60.2,29.95,SSE,157,3.4,3.4,65,0.00,,,0.18,WUHU21623XXSP,2013-06-11 18:42:00,
2013-06-11 14:47:00,72.6,60.4,29.95,South,180,0.0,3.4,65,0.00,,,0.18,WUHU21623XXSP,2013-06-11 18:47:00,
2013-06-11 14:52:00,72.7,60.5,29.95,South,180,0.0,0.0,65,0.00,,,0.18,WUHU21623XXSP,2013-06-11 18:52:00,
2013-06-11 14:57:00,72.9,60.6,29.94,South,180,0.0,0.0,65,0.00,,,0.18,WUHU21623XXSP,2013-06-11 18:57:00,
2013-06-11 15:02:00,73.0,60.8,29.95,South,180,0.0,0.0,65,0.00,,,0.18,WUHU21623XXSP,2013-06-11 19:02:00,
2013-06-11 15:03:00,73.0,60.8,29.95,North,0,0.0,0.0,65,0.00,,,0.18,WUHU21623XXSP,2013-06-11 19:03:00,
2013-06-11 15:07:00,73.0,60.8,29.95,North,0,0.0,0.0,65,0.00,,,0.18,WUHU21623XXSP,2013-06-11 19:07:00,
2013-06-11 15:12:00,73.0,60.8,29.95,North,0,0.0,0.0,65,0.00,,,0.18,WUHU21623XXSP,2013-06-11 19:12:00,
2013-06-11 15:27:00,74.6,61.4,29.93,North,0,0.0,0.0,63,0.00,,,0.18,WUHU21623XXSP,2013-06-11 19:27:00,
2013-06-11 15:32:00,74.8,62.1,29.93,WSW,247,0.0,0.0,64,0.00,,,0.18,WUHU21623XXSP,2013-06-11 19:32:00,
2013-06-11 15:37:00,75.1,62.3,29.94,WSW,247,0.0,0.0,64,0.00,,,0.18,WUHU21623XXSP,2013-06-11 19:37:00,
2013-06-11 15:42:00,75.3,62.5,29.94,WSW,247,0.0,0.0,64,0.00,,,0.18,WUHU21623XXSP,2013-06-11 19:42:00,
2013-06-11 15:47:00,75.4,62.1,29.94,NNW,337,0.0,0.0,63,0.00,,,0.18,WUHU21623XXSP,2013-06-11 19:47:00,
2013-06-11 15:52:00,75.6,62.3,29.94,NNW,337,0.0,0.0,63,0.00,,,0.18,WUHU21623XXSP,2013-06-11 19:52:00,
2013-06-11 15:57:00,75.9,62.6,29.94,NNW,337,0.0,0.0,63,0.00,,,0.18,WUHU21623XXSP,2013-06-11 19:57:00,
2013-06-11 16:02:00,76.1,62.8,29.94,NNW,337,0.0,0.0,63,0.00,,,0.18,WUHU21623XXSP,2013-06-11 20:02:00,
2013-06-11 16:07:00,76.8,63.5,29.94,NNW,337,0.0,0.0,63,0.00,,,0.18,WUHU21623XXSP,2013-06-11 20:07:00,
2013-06-11 16:12:00,77.1,63.7,29.94,NNW,337,0.0,0.0,63,0.00,,,0.18,WUHU21623XXSP,2013-06-11 20:12:00,
2013-06-11 16:16:00,77.3,63.9,29.94,North,0,0.0,0.0,63,0.00,,,0.18,WUHU21623XXSP,2013-06-11 20:16:00,
2013-06-11 16:17:00,77.3,63.9,29.94,NNW,337,0.0,0.0,63,0.00,,,0.18,WUHU21623XXSP,2013-06-11 20:17:00,
2013-06-11 16:22:00,77.3,63.9,29.94,North,0,0.0,0.0,63,0.00,,,0.18,WUHU21623XXSP,2013-06-11 20:22:00,
2013-06-11 16:27:00,78.5,65.1,29.93,West,270,0.0,0.0,63,0.00,,,0.18,WUHU21623XXSP,2013-06-11 20:27:00,
2013-06-11 16:32:00,78.8,65.3,29.93,West,270,0.0,0.0,63,0.00,,,0.18,WUHU21623XXSP,2013-06-11 20:32:00,
2013-06-11 16:37:00,79.3,65.4,29.93,WSW,247,0.0,0.0,62,0.00,,,0.18,WUHU21623XXSP,2013-06-11 20:37:00,
2013-06-11 16:42:00,79.8,65.8,29.92,NE,45,0.0,0.0,62,0.00,,,0.18,WUHU21623XXSP,2013-06-11 20:42:00,
2013-06-11 16:47:00,79.9,65.9,29.92,West,270,0.0,0.0,62,0.00,,,0.18,WUHU21623XXSP,2013-06-11 20:47:00,
2013-06-11 16:52:00,80.4,65.9,29.91,WSW,247,0.0,0.0,61,0.00,,,0.18,WUHU21623XXSP,2013-06-11 20:52:00,
2013-06-11 16:58:00,80.7,66.2,29.91,West,270,0.0,0.0,61,0.00,,,0.18,WUHU21623XXSP,2013-06-11 20:58:00,
2013-06-11 17:03:00,80.8,66.1,29.92,SW,225,0.0,0.0,61,0.00,,,0.18,WUHU21623XXSP,2013-06-11 21:03:00,
2013-06-11 17:07:00,80.8,66.1,29.92,North,0,0.0,0.0,61,0.00,,,0.18,WUHU21623XXSP,2013-06-11 21:07:00,
2013-06-11 17:12:00,80.4,65.8,29.92,SSW,202,0.0,0.0,61,0.00,,,0.18,WUHU21623XXSP,2013-06-11 21:12:00,
2013-06-11 17:18:00,80.2,65.6,29.93,West,270,0.0,0.0,61,0.00,,,0.18,WUHU21623XXSP,2013-06-11 21:18:00,
2013-06-11 17:23:00,79.9,65.3,29.93,NW,315,1.1,1.1,61,0.00,,,0.18,WUHU21623XXSP,2013-06-11 21:23:00,
2013-06-11 17:28:00,79.7,65.1,29.94,NW,315,1.1,1.1,61,0.00,,,0.18,WUHU21623XXSP,2013-06-11 21:28:00,
2013-06-11 17:33:00,79.5,65.4,29.94,NW,315,0.0,1.1,62,0.00,,,0.18,WUHU21623XXSP,2013-06-11 21:33:00,
2013-06-11 17:38:00,79.2,64.6,29.93,NNW,337,0.0,0.0,61,0.00,,,0.18,WUHU21623XXSP,2013-06-11 21:38:00,
2013-06-11 17:43:00,79.2,64.6,29.93,WNW,292,0.0,0.0,61,0.00,,,0.18,WUHU21623XXSP,2013-06-11 21:43:00,
2013-06-11 17:48:00,79.0,64.9,29.92,SSE,157,0.0,0.0,62,0.00,,,0.18,WUHU21623XXSP,2013-06-11 21:48:00,
2013-06-11 17:53:00,78.6,64.5,29.92,WSW,247,0.0,0.0,62,0.00,,,0.18,WUHU21623XXSP,2013-06-11 21:53:00,
2013-06-11 17:58:00,78.6,64.5,29.92,West,270,0.0,0.0,62,0.00,,,0.18,WUHU21623XXSP,2013-06-11 21:58:00,
2013-06-11 18:03:00,78.4,64.4,29.90,ESE,112,0.0,0.0,62,0.00,,,0.18,WUHU21623XXSP,2013-06-11 22:03:00,
2013-06-11 18:08:00,78.4,64.4,29.89,ESE,112,0.0,0.0,62,0.00,,,0.18,WUHU21623XXSP,2013-06-11 22:08:00,
2013-06-11 18:13:00,78.1,64.5,29.87,South,180,0.0,0.0,63,0.00,,,0.18,WUHU21623XXSP,2013-06-11 22:13:00,
2013-06-11 18:18:00,78.1,64.5,29.87,South,180,0.0,0.0,63,0.00,,,0.18,WUHU21623XXSP,2013-06-11 22:18:00,
2013-06-11 18:23:00,78.1,64.9,29.88,SW,225,0.0,0.0,64,0.00,,,0.18,WUHU21623XXSP,2013-06-11 22:23:00,
2013-06-11 18:28:00,77.9,65.2,29.89,NW,315,0.0,0.0,65,0.00,,,0.18,WUHU21623XXSP,2013-06-11 22:28:00,
2013-06-11 18:33:00,78.1,65.3,29.89,NW,315,0.0,0.0,65,0.00,,,0.18,WUHU21623XXSP,2013-06-11 22:33:00,
2013-06-11 18:38:00,78.1,65.3,29.88,WNW,292,0.0,0.0,65,0.00,,,0.18,WUHU21623XXSP,2013-06-11 22:38:00,
2013-06-11 18:43:00,77.7,64.1,29.89,South,180,0.0,0.0,63,0.00,,,0.18,WUHU21623XXSP,2013-06-11 22:43:00,
2013-06-11 18:48:00,77.5,64.4,29.90,SW,225,0.0,0.0,64,0.00,,,0.18,WUHU21623XXSP,2013-06-11 22:48:00,
2013-06-11 18:53:00,77.4,64.7,29.93,NW,315,0.0,0.0,65,0.00,,,0.18,WUHU21623XXSP,2013-06-11 22:53:00,
2013-06-11 18:58:00,77.2,64.5,29.97,NNW,337,0.0,0.0,65,0.00,,,0.18,WUHU21623XXSP,2013-06-11 22:58:00,
2013-06-11 19:03:00,76.8,64.1,29.97,NNW,337,0.0,0.0,65,0.00,,,0.18,WUHU21623XXSP,2013-06-11 23:03:00,
2013-06-11 19:08:00,76.6,64.8,29.97,NE,45,0.0,0.0,67,0.00,,,0.18,WUHU21623XXSP,2013-06-11 23:08:00,
2013-06-11 19:13:00,76.3,64.5,29.97,NNW,337,0.0,0.0,67,0.00,,,0.18,WUHU21623XXSP,2013-06-11 23:13:00,
2013-06-11 19:18:00,76.3,64.5,29.95,SSW,202,2.9,2.9,67,0.00,,,0.18,WUHU21623XXSP,2013-06-11 23:18:00,
2013-06-11 19:23:00,75.7,64.8,29.90,South,180,0.0,2.9,69,0.00,,,0.18,WUHU21623XXSP,2013-06-11 23:23:00,
2013-06-11 19:28:00,75.4,64.9,29.86,SSE,157,0.0,2.9,70,0.00,,,0.18,WUHU21623XXSP,2013-06-11 23:28:00,
2013-06-11 19:33:00,74.8,64.8,29.87,ENE,67,0.0,0.0,71,0.00,,,0.18,WUHU21623XXSP,2013-06-11 23:33:00,
2013-06-11 19:38:00,73.8,64.2,29.87,ESE,112,0.0,0.0,72,0.00,,,0.18,WUHU21623XXSP,2013-06-11 23:38:00,
2013-06-11 19:43:00,73.2,64.1,29.87,ENE,67,1.3,1.3,73,0.00,,,0.18,WUHU21623XXSP,2013-06-11 23:43:00,
2013-06-11 19:48:00,72.9,64.1,29.87,ENE,67,0.0,1.3,74,0.02,,,0.20,WUHU21623XXSP,2013-06-11 23:48:00,
2013-06-11 19:53:00,72.3,63.2,29.90,North,0,0.0,1.3,73,0.04,,,0.22,WUHU21623XXSP,2013-06-11 23:53:00,
2013-06-11 19:58:00,72.1,63.0,29.91,North,0,0.0,0.0,73,0.04,,,0.22,WUHU21623XXSP,2013-06-11 23:58:00,
2013-06-11 20:03:00,71.8,63.4,29.91,North,0,0.0,0.0,75,0.04,,,0.22,WUHU21623XXSP,2013-06-12 00:03:00,
2013-06-11 20:08:00,71.8,63.4,29.92,North,0,0.0,0.0,75,0.04,,,0.22,WUHU21623XXSP,2013-06-12 00:08:00,
2013-06-11 20:13:00,71.8,63.4,29.91,North,0,0.0,0.0,75,0.04,,,0.22,WUHU21623XXSP,2013-06-12 00:13:00,
2013-06-11 20:18:00,72.0,63.6,29.91,North,0,0.0,0.0,75,0.04,,,0.22,WUHU21623XXSP,2013-06-12 00:18:00,
2013-06-11 20:23:00,72.0,63.6,29.91,North,0,0.0,0.0,75,0.04,,,0.22,WUHU21623XXSP,2013-06-12 00:23:00,
2013-06-11 20:28:00,72.0,64.0,29.91,North,0,0.0,0.0,76,0.04,,,0.22,WUHU21623XXSP,2013-06-12 00:28:00,
2013-06-11 20:33:00,72.1,64.1,29.91,North,0,0.0,0.0,76,0.04,,,0.22,WUHU21623XXSP,2013-06-12 00:33:00,
2013-06-11 20:38:00,72.1,64.1,29.91,North,0,0.0,0.0,76,0.04,,,0.22,WUHU21623XXSP,2013-06-12 00:38:00,
2013-06-11 20:43:00,72.0,64.0,29.90,North,0,0.0,0.0,76,0.04,,,0.22,WUHU21623XXSP,2013-06-12 00:43:00,
2013-06-11 20:48:00,72.0,64.0,29.90,North,0,0.0,0.0,76,0.02,,,0.22,WUHU21623XXSP,2013-06-12 00:48:00,
2013-06-11 20:53:00,72.0,64.3,29.90,North,0,0.0,0.0,77,0.00,,,0.22,WUHU21623XXSP,2013-06-12 00:53:00,
2013-06-11 20:58:00,71.8,64.2,29.90,North,0,0.0,0.0,77,0.00,,,0.22,WUHU21623XXSP,2013-06-12 00:58:00,
2013-06-11 21:03:00,71.8,64.5,29.89,North,0,0.0,0.0,78,0.00,,,0.22,WUHU21623XXSP,2013-06-12 01:03:00,
2013-06-11 21:08:00,71.4,63.8,29.89,North,0,0.0,0.0,77,0.00,,,0.22,WUHU21623XXSP,2013-06-12 01:08:00,
2013-06-11 21:13:00,71.4,63.8,29.89,North,0,0.0,0.0,77,0.00,,,0.22,WUHU21623XXSP,2013-06-12 01:13:00,
2013-06-11 21:18:00,71.4,63.8,29.89,North,0,0.0,0.0,77,0.00,,,0.22,WUHU21623XXSP,2013-06-12 01:18:00,
2013-06-11 21:23:00,71.2,64.4,29.90,North,0,0.0,0.0,79,0.00,,,0.22,WUHU21623XXSP,2013-06-12 01:23:00,
2013-06-11 21:28:00,71.2,64.8,29.90,North,0,0.0,0.0,80,0.00,,,0.22,WUHU21623XXSP,2013-06-12 01:28:00,
2013-06-11 21:33:00,71.2,64.8,29.90,North,0,0.0,0.0,80,0.00,,,0.22,WUHU21623XXSP,2013-06-12 01:33:00,
2013-06-11 21:38:00,71.2,64.8,29.90,NE,45,0.0,0.0,80,0.00,,,0.22,WUHU21623XXSP,2013-06-12 01:38:00,
2013-06-11 21:43:00,71.2,65.1,29.89,North,0,0.0,0.0,81,0.00,,,0.22,WUHU21623XXSP,2013-06-12 01:43:00,
2013-06-11 21:48:00,71.2,65.1,29.89,NE,45,0.0,0.0,81,0.00,,,0.22,WUHU21623XXSP,2013-06-12 01:48:00,
2013-06-11 21:53:00,71.2,65.1,29.90,East,90,0.0,0.0,81,0.00,,,0.22,WUHU21623XXSP,2013-06-12 01:53:00,
2013-06-11 21:58:00,71.2,65.1,29.90,WNW,292,0.0,0.0,81,0.00,,,0.22,WUHU21623XXSP,2013-06-12 01:58:00,
2013-06-11 22:03:00,71.1,64.9,29.90,WNW,292,0.0,0.0,81,0.00,,,0.22,WUHU21623XXSP,2013-06-12 02:03:00,
2013-06-11 22:08:00,70.9,64.7,29.90,WNW,292,0.0,0.0,81,0.00,,,0.22,WUHU21623XXSP,2013-06-12 02:08:00,
2013-06-11 22:13:00,70.9,64.7,29.90,WNW,292,0.0,0.0,81,0.00,,,0.22,WUHU21623XXSP,2013-06-12 02:13:00,
2013-06-11 22:18:00,70.7,64.2,29.90,WNW,292,0.0,0.0,80,0.00,,,0.22,WUHU21623XXSP,2013-06-12 02:18:00,
2013-06-11 22:23:00,70.5,64.0,29.90,WNW,292,0.0,0.0,80,0.00,,,0.22,WUHU21623XXSP,2013-06-12 02:23:00,
2013-06-11 22:28:00,70.5,64.4,29.90,WNW,292,0.0,0.0,81,0.00,,,0.22,WUHU21623XXSP,2013-06-12 02:28:00,
2013-06-11 22:33:00,70.5,64.4,29.91,WNW,292,0.0,0.7,81,0.00,,,0.22,WUHU21623XXSP,2013-06-12 02:33:00,
2013-06-11 22:38:00,70.3,64.2,29.90,WNW,292,0.0,0.7,81,0.00,,,0.22,WUHU21623XXSP,2013-06-12 02:38:00,
2013-06-11 22:43:00,70.3,64.2,29.91,WNW,292,0.0,0.0,81,0.00,,,0.22,WUHU21623XXSP,2013-06-12 02:43:00,
2013-06-11 22:48:00,70.2,64.0,29.91,WNW,292,0.0,0.0,81,0.00,,,0.22,WUHU21623XXSP,2013-06-12 02:48:00,
2013-06-11 22:53:00,70.0,63.8,29.91,WNW,292,0.0,0.0,81,0.00,,,0.22,WUHU21623XXSP,2013-06-12 02:53:00,
2013-06-11 22:58:00,70.0,63.8,29.91,WNW,292,0.0,0.0,81,0.00,,,0.22,WUHU21623XXSP,2013-06-12 02:58:00,
2013-06-11 23:03:00,69.8,63.7,29.91,WNW,292,0.0,0.0,81,0.00,,,0.22,WUHU21623XXSP,2013-06-12 03:03:00,
2013-06-11 23:08:00,69.6,63.5,29.91,WNW,292,0.0,0.0,81,0.00,,,0.22,WUHU21623XXSP,2013-06-12 03:08:00,
2013-06-11 23:13:00,69.6,63.8,29.90,WNW,292,0.0,0.0,82,0.00,,,0.22,WUHU21623XXSP,2013-06-12 03:13:00,
2013-06-11 23:18:00,69.4,63.7,29.91,WNW,292,0.0,0.0,82,0.00,,,0.22,WUHU21623XXSP,2013-06-12 03:18:00,
2013-06-11 23:23:00,69.4,63.7,29.91,WNW,292,0.0,0.0,82,0.00,,,0.22,WUHU21623XXSP,2013-06-12 03:23:00,
2013-06-11 23:28:00,69.4,63.7,29.91,WNW,292,0.0,0.0,82,0.00,,,0.22,WUHU21623XXSP,2013-06-12 03:28:00,
2013-06-11 23:33:00,69.3,63.5,29.91,WNW,292,0.0,0.0,82,0.00,,,0.22,WUHU21623XXSP,2013-06-12 03:33:00,
2013-06-11 23:38:00,69.3,63.5,29.91,WNW,292,0.0,0.0,82,0.00,,,0.22,WUHU21623XXSP,2013-06-12 03:38:00,
2013-06-11 23:43:00,69.1,63.7,29.90,WNW,292,0.0,0.0,83,0.00,,,0.22,WUHU21623XXSP,2013-06-12 03:43:00,
2013-06-11 23:48:00,69.1,63.7,29.91,WNW,292,0.0,0.0,83,0.00,,,0.22,WUHU21623XXSP,2013-06-12 03:48:00,
2013-06-11 23:53:00,68.9,63.5,29.91,WNW,292,0.0,0.0,83,0.00,,,0.22,WUHU21623XXSP,2013-06-12 03:53:00,
2013-06-11 23:58:00,68.7,63.3,29.91,WNW,292,0.0,0.0,83,0.00,,,0.22,WUHU21623XXSP,2013-06-12 03:58:00,